{"data":{"norad_id":37265,"intl_designator":"2010-070B","name":"KOREASAT 6","alt_names":[],"object_type":"PAYLOAD","status":"ACTIVE","operator":null,"country":"SKOR","launch_date":"2010-12-29","launch_site_code":"FRGUI","launch_vehicle":null,"mission":null,"orbit_class":"UNKNOWN","rcs_meters":19.9526,"size_class":null,"mass_kg":null,"dimensions":null,"purposes":["comms"],"wikipedia_slug":null,"has_3d_model":false,"image_url":null,"decayed_at":null,"tle_current":{"epoch":"2026-09-19T20:33:15.183072Z","epoch_age_seconds":73901,"freshness":"FRESH","line1":"1 37265U 10070B   26262.85642573  .00000000  00000+0  00000+0 0  9997","line2":"2 37265   0.0224 160.4250 0002114  34.5012 272.0144  1.00270395 57722","mean_motion":1.00270395,"eccentricity":0.0002114,"inclination_deg":0.0224,"raan_deg":160.425,"arg_perigee_deg":34.5012,"mean_anomaly_deg":272.0144,"bstar":0,"rev_number":5772,"period_min":1436.1168119463,"perigee_km":35778.070926437,"apogee_km":35795.898339864,"semimajor_km":42165.121633151,"source":"CELESTRAK","updated_at":"2026-09-20T09:00:35.167267Z"}}}